Theta_e
344 344 342 341 342 343 344 344 345 346 346 345 344 343 345 345 346 347 346 345 344 347 350 348 348 349 347 347 349 347 342 342 340 343 344 349 349 350 352 356 353 354 354
343 342 341 343 343 342 343 343 344 345 347 347 344 345 346 345 346 345 344 346 344 344 345 349 348 349 348 348 350 349 348 344 342 339 346 348 347 348 351 352 352 352 354
342 342 342 343 343 343 344 343 341 344 349 349 342 346 347 347 347 345 345 344 346 344 348 348 348 349 348 348 348 349 348 347 346 345 343 347 348 349 349 351 352 353 355
343 342 342 343 344 345 346 342 342 349 349 350 346 345 346 348 345 346 345 346 348 348 349 350 349 349 348 349 348 349 348 346 346 344 344 345 346 348 348 347 344 345 342
342 342 342 344 346 346 346 342 346 346 347 344 341 340 339 340 340 342 346 347 346 344 341 340 341 342 342 344 347 345 346 345 344 343 342 341 341 341 343 342 340 340 339
342 342 344 345 345 346 345 343 342 342 340 337 335 333 332 331 331 334 340 342 343 337 337 338 338 337 336 335 335 334 338 341 340 340 339 338 336 338 339 339 338 336 334
342 343 344 345 345 345 343 340 339 338 334 332 330 329 326 326 326 331 336 337 341 337 336 334 332 330 331 331 329 329 331 331 333 338 336 335 336 339 337 333 333 334 333
342 343 344 344 345 343 340 338 336 334 332 329 327 326 324 323 324 329 333 336 338 336 335 332 330 327 326 327 326 327 329 330 330 334 336 336 338 338 335 333 332 331 331
341 343 344 345 344 340 338 336 334 332 330 328 326 324 324 321 320 323 329 332 334 333 332 329 327 324 321 321 322 322 324 328 324 324 328 327 328 326 329 331 329 329 327
342 343 344 345 344 340 338 335 335 335 332 329 325 324 321 321 317 319 326 330 330 329 326 325 322 321 317 317 321 322 322 325 323 325 329 330 329 328 326 332 330 328 328
344 343 341 341 339 339 335 334 334 334 331 327 324 323 322 321 319 315 320 329 329 326 324 320 319 316 313 312 315 322 322 320 319 321 325 328 330 331 331 332 332 330 325
339 337 337 338 337 336 336 334 333 333 330 327 324 322 323 322 315 315 316 320 323 326 324 321 318 313 311 312 314 314 313 316 319 321 323 325 326 326 325 325 327 329 328
333 331 332 332 332 335 334 333 331 331 330 328 326 323 324 323 315 313 313 315 319 324 324 319 313 309 310 313 313 314 316 319 319 320 321 322 322 322 323 322 319 320 324
331 332 333 331 329 330 334 335 332 331 330 329 327 325 324 321 315 315 317 319 319 321 319 316 314 314 314 315 317 318 319 320 320 319 318 318 319 319 319 318 315 317 320
333 331 330 329 326 328 331 329 333 335 331 329 328 327 324 321 315 311 313 317 320 317 316 314 313 314 315 316 316 318 317 319 316 317 317 318 318 317 316 316 313 313 314
330 330 330 329 329 328 327 316 307 316 312 312 315 321 324 317 308 304 302 303 305 305 314 315 313 314 314 313 314 317 316 314 312 313 314 315 315 312 311 312 312 312 312
332 332 333 329 329 330 328 321 317 311 308 306 308 308 308 309 304 302 299 300 301 305 313 310 309 308 310 314 315 316 316 312 313 311 312 312 311 311 309 311 311 311 310
336 322 334 333 333 332 328 326 325 318 316 314 306 305 302 301 300 298 297 301 307 307 309 309 308 310 312 314 316 318 318 312 309 311 311 311 311 311 311 311 311 311 310
334 332 333 333 331 326 325 324 321 321 321 316 311 304 299 296 296 296 298 315 311 309 307 306 307 308 311 314 314 313 316 312 310 310 311 312 312 311 311 312 311 305 307
332 327 328 331 328 325 323 321 320 318 318 314 313 313 306 305 307 307 306 309 309 308 305 306 306 307 309 311 312 311 311 310 310 310 311 311 311 311 311 311 310 309 309
335 331 328 331 328 327 326 322 321 320 319 317 315 312 304 309 309 307 307 307 306 305 308 308 307 309 310 311 312 311 311 312 311 311 311 310 311 310 310 310 310 310 310
332 331 331 330 329 328 327 326 324 322 320 318 315 311 301 308 308 308 307 308 309 309 308 307 307 307 308 309 312 312 312 311 312 311 311 311 311 310 310 309 309 309 309
331 330 330 329 328 322 326 328 327 325 323 321 319 314 305 306 307 308 308 308 309 308 308 308 309 309 310 310 311 313 312 312 313 314 313 312 311 311 309 308 308 308 308
330 330 329 329 329 327 326 325 326 317 324 322 322 318 314 312 312 312 312 312 312 312 312 311 311 311 313 313 313 313 314 315 315 314 315 314 313 310 312 310 308 308 308
320 320 319 319 323 324 326 325 324 326 326 325 324 323 321 316 315 314 314 313 312 313 313 313 313 314 314 315 315 314 308 297 310 306 314 314 314 314 313 311 309 307 306
319 318 316 316 315 318 321 321 319 318 317 318 321 321 320 318 316 314 313 313 313 313 314 315 316 316 317 316 316 307 293 290 300 292 312 313 313 313 313 312 310 308 307
Wind_Speed
7 7 6 7 7 6 6 6 6 4 5 6 6 6 6 6 6 5 4 4 5 5 5 6 6 5 4 4 3 4 4 3 2 1 3 2 5 6 6 8 8 7 6
9 8 9 7 7 8 7 7 6 6 5 6 5 5 5 5 6 7 4 2 4 6 5 6 6 5 5 4 3 5 5 5 2 3 2 2 3 3 5 6 6 7 6
8 8 8 7 7 8 7 5 5 4 5 6 6 6 5 5 5 3 6 3 3 4 4 5 5 5 4 4 5 4 4 3 3 2 2 1 1 2 3 2 2 1 2
7 7 7 8 8 7 5 5 5 5 5 5 6 6 6 6 4 5 5 5 2 0 0 4 5 6 6 5 4 4 3 4 3 3 3 2 1 1 2 2 3 3 2
8 8 8 7 6 6 5 6 5 5 5 5 6 4 3 3 2 4 5 5 5 3 3 4 2 2 3 5 4 3 4 3 2 3 2 1 2 1 2 2 3 4 2
8 9 7 7 6 6 6 6 5 5 6 6 6 6 5 3 3 3 4 5 6 6 5 5 5 6 8 9 9 7 3 4 4 3 2 2 2 2 2 1 3 2 3
9 6 6 6 7 7 6 6 5 6 5 5 6 6 5 3 2 4 6 4 5 5 6 6 5 3 4 5 6 7 7 5 2 3 3 3 4 5 5 3 2 2 3
10 9 7 7 6 6 7 7 5 5 5 6 5 4 4 2 3 7 7 5 6 6 6 5 5 5 3 3 2 2 3 4 4 2 1 2 1 4 3 2 3 3 2
10 10 8 8 8 8 8 8 5 6 5 4 4 6 5 4 2 5 5 5 6 7 6 4 5 4 2 3 2 1 1 2 2 5 1 2 5 6 5 5 3 2 2
11 10 8 9 10 10 9 7 3 4 6 6 5 5 6 5 4 7 6 5 7 6 4 5 6 4 3 2 2 2 3 3 0 2 2 4 2 3 7 2 4 3 2
5 7 7 6 4 3 5 4 7 5 5 5 5 3 3 4 3 5 7 6 7 7 6 5 3 8 7 4 3 3 3 4 2 2 1 2 2 3 2 2 2 2 3
14 14 13 10 8 3 3 2 6 6 6 5 5 3 3 3 5 6 8 6 7 6 6 5 5 9 8 7 4 4 4 3 1 2 3 3 3 3 2 1 1 0 1
13 13 13 11 13 7 5 5 7 6 6 7 7 6 5 4 3 6 6 5 8 5 5 6 8 8 8 5 4 5 4 3 3 3 4 3 2 1 2 2 2 2 3
14 13 10 11 10 12 10 9 8 7 8 7 8 7 6 5 5 5 5 5 6 4 8 6 6 6 4 3 3 3 2 2 3 3 2 2 3 3 3 1 1 1 1
10 8 6 6 10 7 8 5 11 13 13 11 9 7 8 7 7 8 7 6 6 7 7 4 3 3 3 4 2 4 2 2 3 3 3 3 3 2 2 1 1 1 2
11 7 6 6 5 6 7 4 9 4 10 11 10 9 7 6 13 14 12 9 10 10 2 3 4 4 4 5 5 5 5 5 2 2 3 3 4 4 3 2 1 2 3
6 4 3 6 5 6 6 6 5 4 3 9 12 13 12 9 11 13 12 10 10 8 3 3 3 4 4 5 5 4 4 5 4 3 5 4 3 3 4 4 3 3 3
6 7 5 5 4 5 5 6 7 9 9 5 3 4 8 9 9 10 13 12 4 3 4 4 4 4 4 5 5 6 6 5 5 5 4 6 6 5 4 5 5 4 4
4 3 3 3 2 3 4 4 4 6 8 7 4 5 7 6 6 8 14 5 6 6 5 4 4 4 5 5 6 5 5 7 6 6 6 5 5 5 5 4 5 6 5
2 3 4 2 2 4 5 4 4 6 4 6 6 5 6 4 5 7 8 6 6 5 5 6 5 6 6 5 5 5 5 5 6 6 6 5 5 5 6 6 6 6 6
2 2 3 3 1 3 4 5 3 4 4 5 4 5 10 6 6 7 7 6 6 5 6 6 5 5 5 6 5 6 6 6 7 7 6 6 6 6 6 5 5 5 4
3 2 3 3 3 2 3 3 4 5 5 3 3 4 12 5 5 6 7 8 8 8 6 6 6 7 6 7 7 7 8 8 7 7 7 7 6 6 6 6 6 6 6
1 2 2 1 1 2 3 4 4 5 4 6 6 5 6 7 6 7 8 8 8 8 7 7 7 7 7 7 7 7 9 9 9 9 9 8 8 7 7 7 7 6 6
3 1 0 1 2 4 4 4 5 6 5 5 5 6 7 7 8 9 8 7 7 8 8 8 8 10 7 7 7 8 8 8 7 9 11 8 9 9 8 8 8 11 8
3 4 2 3 2 3 3 3 3 5 6 7 7 5 5 5 6 6 6 6 7 7 8 8 7 9 11 12 10 12 11 13 10 10 8 10 11 12 10 9 8 9 10
6 5 4 4 4 3 1 2 4 4 4 4 4 4 5 5 4 4 4 6 7 7 7 6 8 12 13 11 12 13 12 12 12 11 8 8 9 10 10 12 14 10 10
Wind_Direction
180 172 169 178 186 186 208 206 212 208 204 219 194 202 197 196 201 211 171 160 180 181 177 184 196 177 200 190 180 152 169 192 200 213 212 227 199 206 222 216 218 219 221
180 174 184 176 182 189 204 208 207 224 210 215 176 191 181 189 194 197 116 116 205 192 195 187 201 192 203 180 179 178 174 186 158 207 213 204 190 190 209 209 223 232 228
170 168 164 175 186 201 204 203 212 195 207 186 169 179 193 198 197 187 141 160 248 201 211 216 216 194 203 189 196 189 171 170 189 170 188 175 172 185 161 152 175 62 358
165 172 170 179 191 197 192 183 191 193 177 169 177 191 197 205 219 186 171 173 240 19 300 223 199 189 202 197 183 197 187 188 197 176 189 205 165 63 79 127 127 60 34
174 180 190 179 185 182 173 171 178 174 158 147 142 133 138 160 205 195 170 166 155 109 70 71 69 121 168 152 166 162 175 181 201 203 189 164 173 156 187 143 120 140 119
187 196 193 173 169 177 171 172 157 152 143 138 130 135 133 122 82 92 129 141 137 126 122 112 90 88 83 86 85 89 138 164 173 199 188 195 179 164 116 89 110 140 156
188 192 187 176 174 173 158 150 149 148 136 131 127 131 134 137 83 106 115 123 134 138 142 144 140 119 107 104 90 84 70 62 113 185 172 190 175 176 150 150 145 149 160
190 188 183 174 175 151 155 160 137 135 145 144 145 144 149 169 173 145 144 150 160 163 164 158 148 146 124 126 113 94 81 74 37 282 202 184 193 146 135 131 141 103 72
197 195 180 166 165 161 171 161 138 140 144 153 156 163 171 181 198 152 134 145 152 148 148 146 144 142 114 118 120 196 140 132 71 44 112 193 168 148 140 131 136 145 161
198 188 169 172 167 170 166 164 131 157 170 151 162 182 181 178 193 165 150 151 148 148 134 132 137 141 116 138 161 184 194 183 67 46 60 78 115 158 165 190 162 162 154
113 89 87 91 112 143 147 135 158 157 151 159 160 171 172 179 195 183 161 173 167 162 166 165 161 157 148 135 146 172 183 153 149 153 181 137 99 108 118 118 146 159 156
104 102 98 85 81 32 128 122 151 158 164 161 144 172 202 201 212 205 185 181 166 163 177 170 169 173 152 141 148 172 161 149 155 151 169 173 166 160 147 105 98 126 25
130 134 135 140 131 148 242 195 151 171 177 183 183 199 199 189 197 198 194 164 165 165 171 166 151 166 155 148 188 202 174 178 170 162 157 159 160 128 109 100 67 74 56
149 163 176 162 188 176 185 172 178 191 186 190 196 200 196 178 191 188 168 164 178 159 144 145 156 164 176 135 149 165 176 174 163 160 156 140 134 158 164 164 163 133 133
164 185 195 198 194 195 189 232 199 193 186 188 193 191 186 197 201 187 171 176 170 166 138 131 142 162 181 164 196 165 151 195 170 152 162 167 169 154 151 182 180 139 182
173 186 195 199 197 177 177 151 30 149 165 170 168 191 200 183 163 179 180 178 152 147 133 176 184 182 181 178 204 169 161 194 205 166 161 194 188 176 175 187 177 185 179
194 215 218 223 206 204 189 172 169 14 35 159 168 185 175 177 186 178 166 149 161 160 193 180 189 198 206 198 196 175 188 185 158 190 195 177 173 177 176 190 189 179 175
191 187 200 221 218 205 175 196 203 191 173 165 144 147 164 164 178 167 147 122 149 227 205 208 217 211 213 211 213 211 206 157 183 192 185 185 183 178 179 196 195 190 181
160 158 190 216 208 141 130 152 185 215 186 162 160 98 80 93 126 153 167 190 186 206 210 219 228 241 236 217 208 198 183 188 194 187 194 192 191 189 200 201 198 194 172
128 220 218 172 151 151 144 164 186 151 170 156 173 157 140 146 177 185 194 201 199 204 190 212 217 220 222 216 209 202 199 190 197 201 199 196 195 200 208 199 196 192 198
159 208 198 239 209 181 164 159 163 148 172 177 176 167 174 183 186 186 191 199 207 204 204 207 196 201 201 208 208 203 207 206 202 206 202 201 194 207 211 208 206 212 209
187 200 204 214 177 171 170 188 170 171 153 167 149 167 175 207 201 201 206 208 218 219 212 204 208 213 213 209 203 206 208 213 204 203 209 205 203 210 200 206 209 208 204
208 196 185 157 187 142 176 204 211 217 193 177 178 169 186 200 210 216 220 221 217 219 211 214 222 224 214 213 212 213 212 211 211 196 199 202 205 207 204 210 211 205 209
64 30 213 198 182 177 203 205 218 216 191 202 185 191 190 198 211 218 219 219 215 213 211 212 215 221 214 215 209 211 216 220 205 205 202 203 208 204 210 214 212 215 214
80 62 13 6 301 256 238 215 231 220 200 203 200 204 207 203 200 214 210 205 211 219 215 209 211 222 227 223 221 216 209 197 202 194 191 203 216 220 219 219 215 214 216
42 43 31 32 30 346 321 261 238 230 223 219 217 216 213 205 211 211 214 213 211 217 221 215 220 219 223 229 232 223 209 206 208 212 212 218 219 224 223 223 220 215 209